Temp
-10 -10 -10 -11 -11 -11 -11 -11 -12 -11 -11 -12 -10 -11 -13 -11 -13 -14 -14 -13 -14 -14 -14 -15 -15 -14 -14 -14 -15 -14 -14 -14
-12 -12 -12 -12 -12 -12 -12 -12 -12 -12 -12 -11 -11 -11 -11 -13 -13 -14 -15 -15 -13 -15 -15 -14 -15 -14 -14 -14 -14 -14 -14 -15
-12 -12 -12 -13 -13 -13 -13 -13 -13 -13 -13 -13 -13 -13 -14 -13 -13 -14 -15 -14 -13 -14 -15 -15 -15 -15 -14 -14 -15 -15 -15 -14
-13 -13 -13 -13 -13 -14 -14 -14 -14 -14 -14 -14 -14 -14 -14 -14 -14 -14 -15 -15 -14 -13 -15 -15 -15 -15 -15 -15 -14 -15 -15 -15
-13 -13 -13 -13 -14 -14 -14 -14 -14 -14 -14 -14 -14 -14 -14 -14 -14 -15 -14 -14 -15 -14 -14 -15 -15 -15 -16 -15 -14 -15 -15 -14
-14 -14 -14 -14 -14 -14 -15 -15 -15 -15 -15 -14 -14 -14 -14 -14 -14 -14 -15 -14 -14 -14 -14 -14 -14 -15 -15 -16 -16 -14 -15 -15
-14 -14 -14 -14 -14 -14 -14 -15 -16 -16 -16 -16 -15 -15 -15 -15 -15 -14 -14 -14 -14 -14 -14 -14 -14 -14 -14 -15 -16 -15 -15 -15
-15 -15 -15 -15 -15 -16 -16 -16 -16 -16 -16 -16 -16 -16 -16 -15 -15 -15 -15 -15 -14 -14 -14 -14 -14 -14 -14 -15 -15 -15 -15 -15
-16 -16 -16 -16 -16 -17 -16 -16 -16 -16 -16 -16 -16 -16 -16 -16 -15 -15 -15 -15 -15 -14 -15 -15 -14 -14 -15 -15 -15 -16 -16 -15
-17 -17 -17 -17 -17 -17 -17 -17 -17 -17 -17 -16 -16 -16 -16 -16 -16 -16 -15 -15 -15 -15 -15 -15 -15 -15 -15 -15 -15 -16 -15 -14
-19 -19 -19 -20 -19 -20 -21 -21 -20 -20 -20 -20 -19 -18 -17 -16 -16 -16 -16 -16 -16 -15 -15 -15 -16 -16 -15 -16 -15 -16 -16 -15
-21 -22 -23 -24 -24 -25 -24 -24 -23 -23 -22 -22 -21 -21 -21 -20 -18 -17 -16 -16 -16 -16 -16 -16 -16 -16 -16 -16 -15 -16 -16 -14
-24 -25 -25 -26 -25 -25 -25 -24 -23 -22 -22 -21 -21 -20 -20 -21 -20 -19 -17 -16 -16 -16 -16 -16 -17 -16 -17 -17 -16 -16 -16 -15
-25 -26 -26 -25 -26 -25 -25 -24 -23 -22 -21 -21 -21 -20 -20 -20 -21 -20 -19 -18 -17 -17 -17 -17 -17 -17 -17 -16 -16 -17 -16 -16
-25 -26 -26 -26 -25 -25 -24 -24 -23 -22 -21 -21 -21 -20 -20 -20 -21 -20 -19 -18 -17 -17 -17 -17 -17 -17 -17 -18 -17 -16 -16 -16
-25 -25 -26 -26 -25 -25 -24 -23 -23 -23 -22 -22 -21 -21 -21 -20 -20 -20 -19 -18 -17 -17 -17 -17 -16 -17 -17 -17 -17 -17 -16 -17
-25 -25 -26 -26 -25 -25 -24 -23 -23 -23 -23 -22 -22 -22 -21 -20 -20 -19 -19 -19 -17 -17 -17 -17 -17 -18 -17 -18 -18 -17 -17 -17
-25 -26 -26 -26 -25 -25 -24 -25 -23 -22 -23 -23 -23 -22 -22 -21 -20 -20 -19 -19 -19 -18 -18 -18 -18 -18 -18 -18 -18 -18 -17 -17
-25 -26 -26 -26 -25 -25 -25 -25 -24 -23 -23 -22 -23 -22 -21 -20 -20 -20 -20 -19 -19 -19 -19 -18 -17 -17 -17 -18 -18 -17 -18 -18
Height
5754 5756 5759 5758 5756 5755 5753 5751 5749 5749 5750 5756 5757 5749 5719 5751 5754 5757 5760 5760 5766 5767 5767 5769 5768 5766 5768 5772 5772 5770 5770 5772
5745 5746 5745 5742 5743 5741 5740 5737 5737 5736 5735 5738 5741 5743 5741 5740 5743 5744 5747 5750 5753 5757 5757 5758 5760 5759 5759 5760 5763 5762 5762 5764
5733 5732 5731 5729 5730 5727 5727 5724 5723 5722 5722 5723 5722 5725 5728 5730 5730 5734 5733 5736 5739 5745 5749 5749 5747 5746 5750 5750 5752 5753 5753 5753
5722 5720 5719 5718 5717 5715 5713 5712 5711 5710 5709 5709 5708 5709 5713 5716 5719 5719 5723 5725 5729 5729 5735 5738 5736 5736 5737 5741 5741 5741 5741 5741
5708 5706 5706 5705 5703 5702 5701 5698 5696 5696 5694 5693 5695 5694 5695 5701 5703 5706 5708 5710 5713 5717 5716 5722 5725 5725 5727 5727 5729 5729 5730 5730
5695 5692 5690 5689 5686 5685 5683 5681 5680 5678 5677 5676 5677 5677 5679 5684 5686 5687 5691 5695 5698 5701 5703 5705 5712 5713 5713 5713 5714 5716 5718 5719
5676 5673 5671 5669 5668 5667 5665 5664 5662 5660 5658 5655 5656 5658 5660 5664 5667 5670 5674 5677 5683 5688 5692 5692 5697 5699 5700 5700 5699 5702 5706 5707
5661 5658 5655 5651 5648 5647 5645 5642 5640 5639 5639 5637 5635 5636 5640 5643 5646 5651 5657 5661 5668 5672 5677 5679 5680 5684 5684 5684 5685 5688 5691 5692
5645 5641 5637 5633 5629 5628 5626 5624 5620 5616 5614 5616 5616 5618 5619 5622 5626 5631 5638 5643 5650 5658 5660 5663 5666 5669 5669 5671 5671 5675 5675 5676
5630 5625 5620 5615 5611 5607 5603 5601 5598 5596 5592 5590 5588 5593 5598 5602 5607 5611 5617 5624 5633 5641 5644 5648 5651 5654 5653 5657 5657 5660 5659 5664
5615 5608 5601 5594 5589 5584 5579 5574 5571 5569 5568 5566 5564 5565 5568 5577 5585 5591 5597 5607 5616 5623 5628 5632 5635 5639 5640 5644 5645 5650 5654 5654
5601 5593 5586 5579 5573 5569 5565 5562 5557 5554 5554 5553 5549 5547 5548 5551 5560 5565 5578 5590 5598 5605 5610 5617 5621 5626 5628 5630 5632 5633 5641 5647
5587 5580 5576 5571 5565 5560 5556 5552 5548 5544 5543 5541 5536 5532 5532 5537 5542 5548 5559 5570 5579 5589 5593 5602 5607 5611 5616 5619 5624 5628 5633 5631
5577 5573 5569 5563 5558 5552 5549 5544 5540 5536 5533 5529 5525 5523 5524 5526 5530 5536 5544 5553 5561 5572 5578 5586 5593 5598 5602 5611 5613 5616 5619 5621
5570 5565 5560 5556 5551 5546 5543 5537 5533 5527 5523 5520 5517 5516 5518 5521 5523 5526 5533 5539 5537 5552 5564 5574 5579 5586 5593 5597 5604 5606 5610 5612
5563 5558 5552 5546 5544 5540 5536 5532 5528 5521 5515 5513 5509 5509 5510 5515 5517 5522 5527 5528 5532 5537 5551 5562 5562 5577 5582 5587 5591 5594 5599 5602
5557 5551 5546 5541 5538 5534 5531 5526 5522 5518 5511 5508 5504 5502 5503 5508 5513 5517 5519 5523 5527 5534 5542 5550 5558 5567 5571 5577 5580 5584 5588 5592
5549 5544 5539 5536 5533 5530 5527 5523 5518 5515 5510 5506 5503 5501 5502 5507 5509 5512 5514 5517 5521 5527 5533 5536 5546 5553 5559 5566 5569 5573 5577 5580
5544 5539 5535 5531 5529 5526 5523 5520 5517 5513 5509 5506 5503 5500 5502 5504 5505 5508 5509 5509 5514 5517 5521 5526 5529 5539 5547 5554 5559 5562 5566 5570
Wind_Speed
50 50 48 46 48 48 47 48 48 50 49 48 49 50 36 54 54 53 53 49 43 42 41 41 41 45 43 38 37 39 40 42
49 48 45 48 52 51 51 49 52 53 54 56 54 58 60 57 57 58 57 54 47 46 43 44 42 48 47 46 43 42 39 36
50 54 51 50 51 52 53 51 52 56 56 60 61 59 58 59 57 59 57 55 51 51 47 46 52 51 52 50 48 49 46 44
50 52 54 51 53 53 54 54 55 57 58 61 63 61 61 59 59 57 57 57 54 51 52 49 54 52 55 56 52 53 53 51
55 56 57 57 57 56 56 59 59 58 58 60 63 64 64 62 60 59 59 58 56 55 53 51 51 53 59 61 58 57 58 59
60 63 64 65 66 66 62 60 59 60 61 62 62 61 62 63 63 61 58 58 57 55 55 52 47 51 56 61 64 59 58 57
68 69 69 72 74 75 74 65 62 61 62 63 65 65 64 63 64 63 61 60 57 54 56 53 52 53 57 61 62 62 60 58
68 68 67 68 68 68 67 68 69 62 60 61 63 64 65 66 67 66 64 62 60 57 57 56 56 56 60 64 61 60 60 63
67 68 67 64 63 65 67 67 68 69 70 66 63 63 63 65 66 67 68 66 63 59 59 60 60 61 62 63 64 61 61 61
65 65 66 68 70 73 73 74 74 74 75 76 76 71 67 64 65 65 67 68 67 63 62 63 63 63 67 65 67 65 65 50
64 66 67 68 69 67 63 63 64 59 56 53 61 68 70 68 70 68 66 64 63 63 65 63 62 64 65 61 61 68 57 46
60 60 57 51 53 49 44 38 43 45 44 43 46 49 47 50 61 67 69 65 61 63 65 63 63 61 63 64 64 61 52 57
54 49 41 40 45 41 39 39 36 35 39 37 42 36 32 35 52 62 65 66 68 66 66 58 58 62 56 58 59 58 59 43
47 41 36 38 39 34 38 40 34 35 37 37 30 30 31 30 30 55 55 66 71 73 65 56 56 54 54 51 36 25 27 27
40 42 44 43 39 31 37 34 28 38 36 27 22 26 18 20 24 39 57 43 42 68 67 55 54 53 52 35 39 33 34 36
39 38 39 35 31 29 35 32 15 26 28 25 21 23 29 27 27 24 29 43 47 53 57 54 47 47 46 44 41 35 37 40
39 37 36 31 27 27 29 25 20 17 22 21 21 15 18 25 28 17 19 29 33 45 52 55 55 53 51 48 40 41 43 45
37 31 31 29 25 26 26 22 23 15 19 16 13 11 15 23 18 18 23 23 18 36 60 58 56 60 50 44 42 45 44 38
29 26 25 23 23 24 24 20 21 21 23 14 13 8 13 26 26 27 21 27 25 20 25 26 40 45 50 52 49 44 39 35
Wind_Direction
288 291 289 284 280 279 278 277 271 269 269 266 267 268 252 264 259 260 264 268 266 266 268 268 268 272 273 273 273 276 278 280
291 287 282 279 279 275 273 272 273 271 269 268 261 259 262 261 257 253 256 261 261 262 264 265 265 268 271 272 271 270 274 278
291 288 285 282 280 278 275 271 268 266 266 265 265 260 262 262 259 256 254 255 259 258 258 256 260 261 268 266 272 274 272 267
285 283 284 286 285 285 284 281 276 271 267 265 265 264 263 259 259 255 255 256 259 258 254 254 260 265 262 268 262 268 270 268
287 285 282 284 284 286 285 282 280 275 271 268 264 264 263 263 260 261 259 255 255 257 253 248 246 251 258 259 258 261 266 268
291 287 288 292 291 292 292 286 277 273 270 267 263 261 260 260 260 258 256 258 255 251 253 252 249 252 254 257 259 257 261 265
294 294 294 292 290 291 290 284 277 272 267 263 261 258 255 254 254 254 254 252 251 249 249 250 249 249 252 253 257 258 259 261
296 295 294 294 292 290 285 282 281 276 269 265 262 261 256 252 251 250 248 249 247 245 248 249 248 247 249 250 257 259 257 258
292 292 291 290 289 286 284 281 279 278 276 270 265 262 259 255 250 249 247 246 244 243 244 247 247 248 250 252 254 256 258 254
295 294 294 293 292 289 287 283 279 276 275 273 272 266 260 256 253 250 246 245 243 241 243 244 246 247 250 251 253 256 260 261
297 297 298 296 295 294 291 287 283 280 277 272 270 268 266 259 252 247 247 244 243 242 243 243 243 246 250 255 255 258 255 267
300 301 302 300 300 301 297 289 286 286 277 272 277 274 260 255 242 242 241 241 241 240 241 240 241 244 247 249 254 263 271 270
307 310 308 302 303 297 296 287 284 284 283 282 282 272 244 250 246 238 231 237 236 236 238 238 237 239 247 251 255 260 265 257
306 305 304 303 305 296 298 294 288 288 290 292 285 249 259 251 254 237 233 231 229 221 234 235 235 238 244 249 255 252 247 251
305 296 297 300 301 293 297 302 306 295 295 291 290 252 250 248 272 238 234 231 228 227 229 232 237 240 245 254 253 252 250 251
305 303 308 293 290 292 300 299 312 310 303 298 294 270 252 238 261 243 248 241 233 219 223 226 230 237 244 249 248 249 249 246
309 305 300 301 288 294 300 307 324 341 309 309 304 310 247 221 250 233 232 219 218 225 220 226 228 236 237 244 245 241 238 243
311 304 304 298 294 298 313 320 327 358 357 300 312 296 263 236 225 238 245 235 243 234 225 221 224 233 227 240 242 238 238 241
317 311 307 300 299 299 314 327 326 337 351 6 289 294 239 232 246 253 272 248 239 234 223 223 210 222 241 241 237 233 235 237